User: anonymous   Login
Location: Unspecified
(0.0000°N, 0.0000°E)
Time: 16:43:15
(UTC+00:00)
Language:

USA 253 - Orbit

View from above orbital plane
View from above orbital plane
View from above satellite
View from above satellite

Ground track
Ground track

The orbit data is extracted from the following two-line orbital elements,

1 40099U 14043A   16238.93761149 0.00000000  00000-0  00000-0 0    07
2 40099   0.0862 101.1750 0005064  65.7271 294.3477  1.00355414    07
Epoch (UTC): 25 August 2016 22:30:09
Eccentricity: 0.0005064
inclination: 0.0862°
perigee height: 35741 km
apogee height: 35784 km
right ascension of ascending node: 101.1750°
argument of perigee: 65.7271°
revolutions per day: 1.00355414
mean anomaly at epoch: 294.3477°
orbit number at epoch: 0

The dashed part of the orbit path shows where the satellite is in the earth's shadow,  

DLR